sat.trackr.live / text

‹ back to catalog

SCORPION (RS89S)

NORAD 67293 · 2025-313AX

PAYLOAD ACTIVE UNKNOWN

§ Identity

Operator
Country
CIS
Launch date
2025-12-28
Launch site
VOSTO
Launch vehicle
Mass (kg)
RCS (m²)

External: N2YO · Heavens-Above · Gunter

§ Orbital elements

Epoch: 2026-05-25T03:33:35.400096Z

Period
94.58 min
Inclination
97.3940°
Eccentricity
0.0012550
Mean motion
15.22600928 rev/d
Perigee alt
489.4 km
Apogee alt
506.6 km
Semi-major
6,876.1 km
B*
1.7260e-4
RAAN
220.2717°
Arg perigee
72.8857°
Mean anomaly
287.3753°
Rev number
2,245

§ Raw data

SCORPION (RS89S)1 67293U 25313AX  26145.14832639  .00003949  00000+0  17260-3 0  99982 67293  97.3940 220.2717 0012550  72.8857 287.3753 15.22600928 22455

JSON: /api/v1/satellites/67293 · /tle

For live sub-satellite position, see the globe view (requires WebGL).

§ Visibility from observer

Set your observer location to see the next 7 days of passes ≥ 10°. The values pass through the URL so the page stays shareable.

No JS? Fill the form by hand. The geolocation button needs JavaScript.